St. James, MN

4:17 AM CDT on April 27, 2018 (GMT -0500)
Saint James Municipal

Weather History for KJYG - November, 2012

Change the Weather History Date:

Friday, November 9, 2012

  Actual Average Record
Temperature  
Mean Temperature 42 °F -  
Max Temperature 53 °F 42 °F 73 °F (1999)
Min Temperature 30 °F 27 °F 6 °F (2017)
Degree Days  
Heating Degree Days 24    
Moisture  
Dew Point 36 °F    
Average Humidity 78    
Maximum Humidity 93    
Minimum Humidity 58    
Precipitation  
Precipitation 0.00 in - - ()
Sea Level Pressure  
Sea Level Pressure 29.92 in    
Wind  
Wind Speed 5 mph (ENE)    
Max Wind Speed 17 mph    
Max Gust Speed 22 mph    
Visibility 8 miles    
Events      
Averages and records for this station are not official NWS values.
T = Trace of Precipitation, MM = Missing Value Source: NWS Daily Summary

Daily Weather History Graph

Daily Weather History Graph

Search for Another Location

Airport or City:

Astronomy

Nov. 09, 2012 Rise Set
Actual Time 7:05 AM CST 4:57 PM CST
Civil Twilight 6:35 AM CST 5:28 PM CST
Nautical Twilight 6:00 AM CST 6:02 PM CST
Astronomical Twilight 5:26 AM CST 6:36 PM CST
Moon 1:56 AM CST (11/9) 2:19 PM CST (11/9)
Length of Visible Light 10h 53m
Length of Day
9h 51m
Waning Crescent, 23% of the Moon is Illuminated
Nov 9
Waning Crescent
Nov 13
New
Nov 20
First Quarter
Nov 28
Full
Dec 6
Last Quarter

Hourly Weather History & Observations

Time (CST) Temp. Windchill Dew Point Humidity Pressure Visibility Wind Dir Wind Speed Gust Speed Precip Events Conditions
12:15 AM 32.0 °F - 28.4 °F 87% 29.97 in 7.0 mi Calm Calm - N/A   Clear
12:34 AM 32.0 °F - 28.4 °F 87% 29.96 in 7.0 mi Calm Calm - N/A   Clear
12:55 AM 30.2 °F - 28.4 °F 93% 29.96 in 5.0 mi Calm Calm - N/A   Clear
1:15 AM 30.2 °F - 28.4 °F 93% 29.95 in 5.0 mi Calm Calm - N/A   Clear
1:34 AM 30.2 °F - 28.4 °F 93% 29.95 in 7.0 mi Calm Calm - N/A   Clear
1:55 AM 32.0 °F - 30.2 °F 93% 29.96 in 7.0 mi Calm Calm - N/A   Clear
2:15 AM 33.8 °F - 30.2 °F 87% 29.96 in 7.0 mi Calm Calm - N/A   Clear
2:34 AM 33.8 °F - 30.2 °F 87% 29.96 in 10.0 mi Calm Calm - N/A   Clear
2:55 AM 33.8 °F - 30.2 °F 87% 29.95 in 7.0 mi Calm Calm - N/A   Clear
3:15 AM 33.8 °F - 30.2 °F 87% 29.95 in 7.0 mi Calm Calm - N/A   Clear
3:34 AM 33.8 °F - 30.2 °F 87% 29.95 in 7.0 mi Calm Calm - N/A   Clear
3:55 AM 33.8 °F - 30.2 °F 87% 29.96 in 7.0 mi Calm Calm - N/A   Clear
4:15 AM 33.8 °F - 30.2 °F 87% 29.97 in 7.0 mi Calm Calm - N/A   Clear
4:34 AM 33.8 °F - 30.2 °F 87% 29.97 in 7.0 mi Calm Calm - N/A   Clear
4:55 AM 33.8 °F - 30.2 °F 87% 29.96 in 7.0 mi Calm Calm - N/A   Clear
5:15 AM 33.8 °F - 30.2 °F 87% 29.97 in 7.0 mi Calm Calm - N/A   Clear
5:34 AM 33.8 °F - 30.2 °F 87% 29.97 in 7.0 mi Calm Calm - N/A   Clear
5:55 AM 32.0 °F - 30.2 °F 93% 29.97 in 5.0 mi Calm Calm - N/A   Clear
6:15 AM 32.0 °F - 30.2 °F 93% 29.98 in 5.0 mi Calm Calm - N/A   Clear
6:34 AM 32.0 °F - 30.2 °F 93% 29.97 in 5.0 mi Calm Calm - N/A   Clear
6:55 AM 33.8 °F - 30.2 °F 87% 29.97 in 5.0 mi Calm Calm - N/A   Clear
7:15 AM 32.0 °F - 28.4 °F 87% 29.98 in 4.0 mi Calm Calm - N/A   Clear
7:35 AM 32.0 °F - 30.2 °F 93% 29.99 in 3.0 mi Calm Calm - N/A   Clear
7:55 AM 33.8 °F - 30.2 °F 87% 29.99 in 4.0 mi Calm Calm - N/A   Clear
8:15 AM 33.8 °F - 30.2 °F 87% 29.99 in 4.0 mi Calm Calm - N/A   Clear
8:35 AM 35.6 °F - 32.0 °F 87% 29.99 in 4.0 mi Calm Calm - N/A   Clear
8:55 AM 37.4 °F 30.8 °F 33.8 °F 87% 29.99 in 5.0 mi ENE 9.2 mph - N/A   Clear
9:14 AM 37.4 °F 30.3 °F 35.6 °F 93% 29.98 in 5.0 mi ENE 10.4 mph - N/A   Clear
9:35 AM 39.2 °F 33.0 °F 35.6 °F 87% 29.97 in 7.0 mi ENE 9.2 mph - N/A   Clear
9:55 AM 41.0 °F 34.7 °F 37.4 °F 87% 29.97 in 7.0 mi ENE 10.4 mph - N/A   Clear
10:15 AM 42.8 °F 37.5 °F 37.4 °F 81% 29.97 in 7.0 mi ENE 9.2 mph - N/A   Clear
10:35 AM 44.6 °F 38.8 °F 37.4 °F 76% 29.97 in 10.0 mi ENE 11.5 mph - N/A   Clear
10:55 AM 46.4 °F 43.5 °F 39.2 °F 76% 29.96 in 10.0 mi ENE 5.8 mph - N/A   Clear
11:15 AM 48.2 °F - 39.2 °F 71% 29.95 in 10.0 mi East 6.9 mph - N/A   Clear
11:35 AM 48.2 °F - 39.2 °F 71% 29.94 in 10.0 mi ENE 16.1 mph 20.7 mph N/A   Clear
11:55 AM 50.0 °F - 39.2 °F 66% 29.93 in 10.0 mi East 15.0 mph 19.6 mph N/A   Clear
12:15 PM 50.0 °F - 39.2 °F 66% 29.92 in 10.0 mi East 13.8 mph 18.4 mph N/A   Clear
12:35 PM 51.8 °F - 39.2 °F 62% 29.91 in 10.0 mi East 16.1 mph 20.7 mph N/A   Clear
12:55 PM 51.8 °F - 39.2 °F 62% 29.90 in 10.0 mi East 16.1 mph 20.7 mph N/A   Clear
1:15 PM 53.6 °F - 41.0 °F 62% 29.88 in 10.0 mi East 17.3 mph - N/A   Clear
1:35 PM 53.6 °F - 41.0 °F 62% 29.88 in 10.0 mi East 15.0 mph 20.7 mph N/A   Clear
1:55 PM 53.6 °F - 39.2 °F 58% 29.87 in 10.0 mi East 12.7 mph 19.6 mph N/A   Clear
2:15 PM 53.6 °F - 39.2 °F 58% 29.88 in 10.0 mi East 13.8 mph - N/A   Clear
2:35 PM 53.6 °F - 41.0 °F 62% 29.88 in 10.0 mi East 12.7 mph 17.3 mph N/A   Clear
2:55 PM 53.6 °F - 41.0 °F 62% 29.87 in 10.0 mi ENE 15.0 mph - N/A   Clear
3:14 PM 53.6 °F - 41.0 °F 62% 29.86 in 10.0 mi ENE 16.1 mph - N/A   Clear
3:35 PM 51.8 °F - 41.0 °F 67% 29.86 in 10.0 mi ENE 15.0 mph 21.9 mph N/A   Clear
3:55 PM 51.8 °F - 41.0 °F 67% 29.87 in 10.0 mi ENE 15.0 mph 19.6 mph N/A   Clear
4:14 PM 50.0 °F - 39.2 °F 66% 29.87 in 10.0 mi ENE 12.7 mph - N/A   Clear
4:35 PM 50.0 °F - 41.0 °F 71% 29.88 in 10.0 mi ENE 11.5 mph - N/A   Mostly Cloudy
4:55 PM 50.0 °F - 41.0 °F 71% 29.87 in 10.0 mi ENE 13.8 mph - N/A   Overcast
5:14 PM 48.2 °F - 39.2 °F 71% 29.87 in 10.0 mi ENE 16.1 mph - N/A   Overcast
5:34 PM 48.2 °F - 39.2 °F 71% 29.88 in 10.0 mi ENE 16.1 mph - N/A   Overcast
5:55 PM 48.2 °F - 39.2 °F 71% 29.87 in 10.0 mi ENE 16.1 mph - N/A   Overcast
6:15 PM 48.2 °F - 39.2 °F 71% 29.88 in 10.0 mi ENE 13.8 mph 21.9 mph N/A   Overcast
6:34 PM 48.2 °F - 39.2 °F 71% 29.88 in 10.0 mi East 15.0 mph - N/A   Overcast
6:55 PM 46.4 °F 40.4 °F 39.2 °F 76% 29.88 in 10.0 mi East 13.8 mph - N/A   Overcast
7:14 PM 46.4 °F 40.7 °F 39.2 °F 76% 29.88 in 7.0 mi East 12.7 mph - N/A   Overcast
7:35 PM 46.4 °F 40.1 °F 39.2 °F 76% 29.88 in 7.0 mi East 15.0 mph 20.7 mph N/A   Overcast
7:55 PM 46.4 °F 39.8 °F 39.2 °F 76% 29.88 in 7.0 mi East 16.1 mph 21.9 mph N/A   Overcast
8:15 PM 46.4 °F 40.4 °F 39.2 °F 76% 29.88 in 7.0 mi East 13.8 mph 18.4 mph N/A   Overcast
8:35 PM 46.4 °F 40.4 °F 39.2 °F 76% 29.88 in 7.0 mi East 13.8 mph - N/A   Overcast
8:55 PM 46.4 °F 40.7 °F 39.2 °F 76% 29.88 in 7.0 mi ENE 12.7 mph - N/A   Scattered Clouds
9:15 PM 46.4 °F 40.7 °F 39.2 °F 76% 29.88 in 7.0 mi ENE 12.7 mph - N/A   Scattered Clouds
9:35 PM 46.4 °F 40.1 °F 39.2 °F 76% 29.88 in 7.0 mi ENE 15.0 mph - N/A   Mostly Cloudy
9:54 PM 46.4 °F 40.1 °F 39.2 °F 76% 29.87 in 7.0 mi East 15.0 mph - N/A   Scattered Clouds
10:15 PM 46.4 °F 39.5 °F 39.2 °F 76% 29.86 in 7.0 mi East 17.3 mph - N/A   Scattered Clouds
10:35 PM 46.4 °F 39.8 °F 39.2 °F 76% 29.85 in 7.0 mi East 16.1 mph 21.9 mph N/A   Scattered Clouds
11:15 PM 46.4 °F 40.1 °F 39.2 °F 76% 29.84 in 7.0 mi East 15.0 mph 21.9 mph N/A   Scattered Clouds
11:35 PM 46.4 °F 40.1 °F 39.2 °F 76% 29.83 in 7.0 mi East 15.0 mph 19.6 mph N/A   Clear
11:55 PM 46.4 °F 40.4 °F 39.2 °F 76% 29.81 in 7.0 mi East 13.8 mph - N/A   Scattered Clouds